Tracking 20945 objects as of 8-Jul-2020
HD Live streaming from Space Station
objects crossing your sky now

FENGYUN 1C DEB

Track FENGYUN 1C DEB now!
10-day predictions


NORAD ID: 31342
Int'l Code: 1999-025BQW
Perigee: 701.5 km
Apogee: 865.7 km
Inclination: 99.0 °
Period: 100.4 minutes
Semi major axis: 7154 km
RCS: 0.0151 m2 (small)
Launch date: May 10, 1999
Source: People's Republic of China (PRC)
Launch site: Taiyaun Space Center, China (TSC)

Note: This is SATELLITE DEBRIS
aabbcc
Your satellite tracking list
Your tracking list is empty




NASA's NSSDC Master Catalog

Two Line Element Set (TLE):
1 31342U 99025BQW 20190.48462192  .00000001  00000-0  16920-4 0  9999
2 31342  98.9553  60.2289 0114782 287.7262  71.1421 14.34575095695197
Source of the keplerian elements: AFSPC